This demonstration page uses our WeatherBlox Daily Observations layout. Learn more.

Hourly Observations for November 2, 2019

Temp ( °F °C ) Dew Point ( °F °C ) Humidity (%) Winds ( mph kmh ) Pressure ( in mb ) Visibility ( mi km ) Precip ( " mm )
12:15 am 00:15 Partly Cloudy 29 -1.4 25 -4.1 82 82 WNW 7 11 30.5 1033 10 16.0934 0 0
12:35 am 00:35 Clear 29 -1.4 24 -4.2 81 81 WNW 6 9 30.49 1032 10 16.0934 0 0
12:55 am 00:55 Clear 27 -2.7 23 -5 84 84 W 7 11 30.5 1033 10 16.0934 0 0
1:15 am 01:15 Clear 28 -2 24 -4.2 85 85 W 9 15 30.5 1033 10 16.0934 0 0
1:35 am 01:35 Clear 28 -2 24 -4.3 84 84 W 8 13 30.5 1033 10 16.0934 0 0
1:55 am 01:55 Clear 28 -2 24 -4.4 84 84 W 8 13 30.5 1033 10 16.0934 0 0
2:15 am 02:15 Clear 28 -2 24 -4.6 83 83 W 10 17 30.5 1033 10 16.0934 0 0
2:35 am 02:35 Clear 27 -2.7 23 -5.1 84 84 WNW 7 11 30.51 1033 10 16.0934 0 0
2:55 am 02:55 Clear 27 -2.6 23 -5 84 84 WNW 8 13 30.51 1033 10 16.0934 0 0
3:15 am 03:15 Clear 27 -2.9 22 -5.3 84 84 W 9 15 30.51 1033 10 16.0934 0 0
3:35 am 03:35 Clear 27 -2.7 22 -5.4 82 82 WNW 5 7 30.5 1033 10 16.0934 0 0
3:55 am 03:55 Clear 27 -3 22 -5.3 84 84 W 8 13 30.51 1033 10 16.0934 0 0
4:15 am 04:15 Clear 27 -2.8 23 -5.1 84 84 W 9 15 30.49 1033 10 16.0934 0 0
4:35 am 04:35 Clear 25 -4.1 21 -6.1 86 86 W 7 11 30.51 1033 10 16.0934 0 0
4:55 am 04:55 Clear 25 -4.1 22 -5.6 89 89 W 6 9 30.51 1033 10 16.0934 0 0
5:15 am 05:15 Clear 26 -3.5 22 -5.6 86 86 W 7 11 30.5 1033 10 16.0934 0 0
5:35 am 05:35 Clear 25 -4 22 -5.7 88 88 W 8 13 30.51 1033 10 16.0934 0 0
5:55 am 05:55 Clear 25 -4 21 -6.1 86 86 W 6 9 30.51 1033 10 16.0934 0 0
6:15 am 06:15 Clear 23 -4.8 20 -6.8 86 86 W 6 9 30.51 1033 10 16.0934 0 0
6:35 am 06:35 Clear 23 -5 20 -6.8 87 87 W 7 11 30.52 1033 10 16.0934 0 0
6:55 am 06:55 Clear 23 -4.8 20 -6.8 86 86 W 8 13 30.5 1033 10 16.0934 0 0
7:15 am 07:15 Clear 24 -4.7 20 -6.8 85 85 W 8 13 30.49 1033 10 16.0934 0 0
7:35 am 07:35 Clear 23 -5 19 -7.1 85 85 W 8 13 30.5 1033 10 16.0934 0 0
7:55 am 07:55 Clear 23 -5.1 19 -7 87 87 W 8 13 30.5 1033 10 16.0934 0 0
8:15 am 08:15 Sunny 23 -5.1 19 -7 87 87 W 8 13 30.49 1032 10 16.0934 0 0
8:35 am 08:35 Sunny 24 -4.7 20 -6.7 86 86 W 9 15 30.49 1033 10 16.0934 0 0
8:55 am 08:55 Sunny 25 -4 21 -6.1 86 86 W 8 13 30.48 1032 10 16.0934 0 0
9:15 am 09:15 Sunny 27 -2.8 22 -5.5 82 82 W 8 13 30.47 1032 10 16.0934 0 0
9:35 am 09:35 Sunny 28 -2.1 23 -4.9 81 81 W 9 15 30.46 1031 10 16.0934 0 0
9:55 am 09:55 Sunny 31 -0.7 25 -4.1 78 78 W 7 11 30.45 1031 10 16.0934 0 0
10:15 am 10:15 Sunny 33 0.5 26 -3.3 76 76 W 9 15 30.43 1031 10 16.0934 0 0
10:35 am 10:35 Sunny 35 1.8 27 -2.6 73 73 W 6 9 30.42 1030 10 16.0934 0 0
10:55 am 10:55 Sunny 38 3.4 29 -1.8 69 69 W 5 7 30.4 1030 10 16.0934 0 0
11:15 am 11:15 Sunny 41 5.2 30 -1.2 64 64 WSW 9 15 30.38 1029 10 16.0934 0 0
11:35 am 11:35 Sunny 40 4.4 28 -2.2 63 63 WSW 8 13 30.38 1029 10 16.0934 0 0
11:55 am 11:55 Sunny 41 5 28 -2.2 60 60 WSW 8 13 30.37 1028 10 16.0934 0 0
12:15 pm 12:15 Sunny 42 5.7 28 -2.2 57 57 SW 9 15 30.35 1028 10 16.0934 0 0
12:35 pm 12:35 Sunny 45 7.1 28 -2.3 52 52 SSW 8 13 30.33 1027 10 16.0934 0 0
12:55 pm 12:55 Sunny 46 8 26 -3.1 46 46 SW 6 9 30.3 1026 10 16.0934 0 0
1:15 pm 13:15 Sunny 48 9.1 26 -3.1 42 42 SW 13 20 30.28 1025 10 16.0934 0 0
1:35 pm 13:35 Sunny 49 9.4 26 -3.1 42 42 SW 12 19 30.26 1025 10 16.0934 0 0
1:55 pm 13:55 Sunny 50 10 27 -2.8 41 41 SW 10 17 30.24 1024 10 16.0934 0 0
2:15 pm 14:15 Sunny 52 11 28 -2.5 39 39 SSW 13 20 30.21 1023 10 16.0934 0 0
2:35 pm 14:35 Sunny 53 11.5 28 -2.5 38 38 WSW 8 13 30.2 1023 10 16.0934 0 0
2:55 pm 14:55 Sunny 55 12.5 26 -3.1 34 34 WSW 14 22 30.17 1022 10 16.0934 0 0
3:15 pm 15:15 Sunny 55 13 25 -4 31 31 WSW 13 20 30.16 1021 10 16.0934 0 0
3:35 pm 15:35 Sunny 56 13.1 24 -4.5 29 29 WSW 15 24 30.14 1021 10 16.0934 0 0
3:55 pm 15:55 Sunny 56 13.3 23 -5 28 28 WSW 14 22 30.13 1020 10 16.0934 0 0
4:15 pm 16:15 Sunny 56 13.3 22 -5.3 27 27 WSW 15 24 30.12 1020 10 16.0934 0 0
4:35 pm 16:35 Sunny 56 13.2 22 -5.3 27 27 W 14 22 30.11 1020 10 16.0934 0 0
4:55 pm 16:55 Sunny 56 13.4 23 -4.9 28 28 W 12 19 30.11 1020 10 16.0934 0 0
5:15 pm 17:15 Sunny 56 13.5 24 -4.6 28 28 W 9 15 30.1 1019 10 16.0934 0 0
5:35 pm 17:35 Sunny 56 13.5 23 -4.9 28 28 W 9 15 30.1 1019 10 16.0934 0 0
5:55 pm 17:55 Sunny 55 12.6 23 -4.8 30 30 WSW 6 9 30.09 1019 10 16.0934 0 0
6:15 pm 18:15 Sunny 53 11.5 23 -5.1 31 31 WSW 5 7 30.1 1019 10 16.0934 0 0
6:35 pm 18:35 Clear 50 10.2 23 -5.1 34 34 SW 5 7 30.1 1019 10 16.0934 0 0
6:55 pm 18:55 Clear 49 9.4 22 -5.3 35 35 SSW 6 9 30.11 1020 10 16.0934 0 0
7:15 pm 19:15 Partly Cloudy 47 8.3 22 -5.5 37 37 SSW 6 9 30.12 1020 10 16.0934 0 0
7:35 pm 19:35 Mostly Cloudy 45 7.2 21 -6.1 39 39 SSW 7 11 30.13 1020 10 16.0934 0 0
7:55 pm 19:55 Mostly Cloudy 44 6.8 21 -6.1 40 40 SW 7 11 30.13 1020 10 16.0934 0 0
8:15 pm 20:15 Mostly Cloudy 45 7 21 -6 39 39 SW 7 11 30.13 1020 10 16.0934 0 0
8:35 pm 20:35 Clear 43 6.2 21 -6 42 42 SW 8 13 30.13 1020 10 16.0934 0 0
8:55 pm 20:55 Clear 44 6.6 22 -5.5 42 42 SW 10 17 30.12 1020 10 16.0934 0 0
9:15 pm 21:15 Clear 45 7.1 23 -5 42 42 WSW 8 13 30.11 1020 10 16.0934 0 0
9:35 pm 21:35 Clear 47 8.2 24 -4.6 40 40 WSW 8 13 30.1 1019 10 16.0934 0 0
9:55 pm 21:55 Clear 47 8.4 24 -4.5 40 40 WSW 8 13 30.1 1019 10 16.0934 0 0
10:15 pm 22:15 Clear 43 6 24 -4.7 47 47 WNW 9 15 30.14 1021 10 16.0934 0 0
10:35 pm 22:35 Clear 41 4.9 24 -4.7 50 50 WNW 5 7 30.15 1021 10 16.0934 0 0
10:55 pm 22:55 Clear 40 4.6 24 -4.6 52 52 W 7 11 30.14 1021 10 16.0934 0 0
11:15 pm 23:15 Clear 41 5 23 -5 49 49 W 6 9 30.14 1021 10 16.0934 0 0
11:35 pm 23:35 Clear 39 3.9 23 -5 53 53 WNW 5 7 30.15 1021 10 16.0934 0 0
11:55 pm 23:55 Clear 38 3.1 23 -5 56 56 WNW 5 7 30.15 1021 10 16.0934 0 0

Powered by AerisWeather